Regional Weather Roundup
Issued by NWS Sioux Falls, SD

Home | Current Version | Previous Version | Text Only | Print | Product List | Glossary On
Versions: 1 2 3 4 5 6 7 8 9 10 11 12 13 14 15 16 17 18 19 20 21 22 23 24 25 26 27 28 29 30 31 32 33 34 35 36 37 38 39 40 41 42 43 44 45 46 47 48 49 50
000
ASUS43 KFSD 031602
RWRFSD

WEATHER ROUNDUP FOR SE SOUTH DAKOTA/SW MINNESOTA/NW IOWA
NATIONAL WEATHER SERVICE SIOUX FALLS SD
1100 AM CDT TUE MAY 03 2016

NOTE: "FAIR" INDICATES FEW OR NO CLOUDS BELOW 12,000 FEET WITH NO
SIGNIFICANT WEATHER AND OR OBSTRUCTIONS TO VISIBILITY.


SDZ038>040-050-052>070-031700-
SOUTHEAST SOUTH DAKOTA

CITY           SKY/WX    TMP DP  RH WIND       PRES   REMARKS
BROOKINGS      SUNNY     60  45  57 W18       29.96F
CHAMBERLAIN    NOT AVBL
HURON          SUNNY     64  45  49 NW18G28   29.99F
MADISON        FAIR      57  46  67 W13G20    30.00S
MITCHELL       SUNNY     61  46  57 NW17      30.02F
SIOUX FALLS    MOSUNNY   60  45  57 NW14      30.00F
WINNER         FAIR      60  43  53 NW12      30.07F
YANKTON        SUNNY     61  45  55 NW7       30.03F
$$

MNZ071-072-080-081-089-090-097-098-031700-
SOUTHWEST MINNESOTA

CITY           SKY/WX    TMP DP  RH WIND       PRES   REMARKS
FAIRMONT       SUNNY     63  39  42 W14       29.96F
JACKSON        SUNNY     61  36  39 W12       29.98F
LUVERNE        SUNNY     59  43  55 W14       30.00F
MARSHALL       SUNNY     62  43  49 W20       29.95F
MONTEVIDEO     SUNNY     64  43  45 NW12      29.94F
PIPESTONE      SUNNY     61  45  55 NW15G21   29.98F
REDWOOD FALLS  SUNNY     64  40  41 W14G24    29.93F
TRACY          SUNNY     63  44  50 W9G17     29.96F
WINDOM         SUNNY     63  39  42 SW14G20   29.97R
WORTHINGTON    SUNNY     60  45  57 W14       29.98F
$$

IAZ001>003-012>014-020>022-031-032-NEZ013-014-SDZ071-031700-
NORTHWEST IOWA

CITY           SKY/WX    TMP DP  RH WIND       PRES   REMARKS
CHEROKEE       SUNNY     61  46  58 W9        30.01F
DENISON        SUNNY     63  45  51 W12       30.02F
ESTHERVILLE    SUNNY     61  43  51 W15       29.97F
SIOUX CITY     SUNNY     62  46  55 NW12      30.04F
SPENCER        SUNNY     62  42  47 W14       29.99F
STORM LAKE     SUNNY     61  45  55 W12G17    30.02F
$$

ABBREVIATIONS USED IN REMARKS
   TC - TEMPERATURE IN CELSIUS
  WCI - WIND CHILL INDEX
   HX - HEAT INDEX
  VSB - VISIBILITY





USA.gov is the U.S. government's official web portal to all federal, state and local government web resources and services.